Location: *
(34.8620°S, 39.3380°E)
Time: 19:45:39
(UTC+00:00)

ISS - Pass Details

Date: 30 October 2021
Orbit: 417 x 423 km, 51.6° (Epoch: 28 November)

Event Time Altitude Azimuth Distance (km) Brightness Sun altitude
Rises 18:21:32 0° 225° (SW) 2,413 1.4 -27.4°
Reaches altitude 10° 18:23:40 10° 221° (SW) 1,541 0.1 -27.7°
Enters shadow 18:25:06 23° 215° (SW) 987 -1.2 -27.9°
